FW2588 Weather Reports


Display with metric or nautical units.
time (UTC)temp
F
wind
direction
speed
MPH
gust
MPH
rain 1hr
in
rain 24hr
in
rain mn
in
humidity
%
barometer
mb
20260505070036 45 258 0.0 0.0 0.00 0.00 0.00 90 1013.0
20260505064521 46 258 0.0 0.0 0.00 0.00 0.00 90 1013.2
20260505063021 46 146 0.0 0.0 0.00 0.00 0.00 89 1013.3
20260505061523 47 318 0.0 0.0 0.00 0.00 0.00 88 1013.1
20260505060015 47 318 0.0 0.0 0.00 0.00 0.00 87 1013.2
20260505054512 48 318 0.0 0.0 0.00 0.00 0.00 86 1013.3
20260505053014 48 318 0.0 0.0 0.00 0.00 0.00 86 1013.3
20260505051510 49 318 0.0 0.0 0.00 0.00 0.00 84 1013.4
20260505041600 52 337 0.0 0.0 0.00 0.00 0.00 77 1013.3
20260505040055 53 337 0.0 0.0 0.00 0.00 0.00 76 1013.4
20260505034553 54 337 0.0 0.0 0.00 0.00 0.00 75 1013.4
20260505033053 55 337 0.0 0.0 0.00 0.00 0.00 73 1013.6
20260505031602 56 337 0.0 0.0 0.00 0.00 0.00 71 1013.6
20260505030051 57 336 0.0 0.0 0.00 0.00 0.00 68 1013.8
20260505024559 59 336 0.0 0.0 0.00 0.00 0.00 64 1013.7
20260505023050 60 336 0.0 0.0 0.00 0.00 0.00 63 1013.7
20260505021553 60 336 0.0 0.0 0.00 0.00 0.00 61 1013.5
20260505020049 61 336 0.0 0.0 0.00 0.00 0.00 59 1013.5
20260505014604 61 49 0.0 0.0 0.00 0.00 0.00 59 1013.1
20260505013051 62 360 0.0 0.0 0.00 0.00 0.00 58 1013.1
20260505011556 63 360 0.0 0.0 0.00 0.00 0.00 57 1012.7
20260505010047 64 360 0.0 0.0 0.00 0.00 0.00 57 1012.7
20260505004546 65 360 0.0 0.0 0.00 0.00 0.00 53 1012.5
20260505003046 66 360 0.0 0.0 0.00 0.00 0.00 51 1012.2
20260505001545 67 360 0.0 0.0 0.00 0.00 0.00 49 1012.0
20260505000054 68 360 0.0 0.0 0.00 0.00 0.00 48 1011.9
20260504234548 69 360 0.0 0.0 0.00 0.00 0.00 47 1011.8
20260504233103 70 148 0.0 0.0 0.00 0.00 0.00 47 1011.7
20260504231544 70 150 0.0 0.0 0.00 0.00 0.00 46 1011.6
20260504230042 71 157 0.0 0.0 0.00 0.00 0.00 44 1011.4
20260504224542 71 126 0.0 0.0 0.00 0.00 0.00 44 1011.4
20260504223056 72 136 0.0 1.0 0.00 0.00 0.00 42 1011.5
20260504221539 72 127 0.0 0.0 0.00 0.00 0.00 42 1011.5
20260504220038 73 117 0.0 0.0 0.00 0.00 0.00 41 1011.5
20260504214536 73 101 1.0 10.0 0.00 0.00 0.00 40 1011.5
20260504213049 73 360 3.0 10.0 0.00 0.00 0.00 39 1011.6
20260504211536 74 121 1.0 7.0 0.00 0.00 0.00 37 1011.6
20260504210038 74 156 2.0 9.0 0.00 0.00 0.00 36 1011.7
20260504204542 76 305 3.0 10.0 0.00 0.00 0.00 32 1011.8
20260504203130 76 140 1.0 5.0 0.00 0.00 0.00 32 1012.0
20260504201527 76 51 2.0 11.0 0.00 0.00 0.00 30 1012.2
20260504200026 76 143 0.0 0.0 0.00 0.00 0.00 31 1012.4
20260504194523 76 79 0.0 0.0 0.00 0.00 0.00 38 1012.7
20260504193020 76 131 0.0 0.0 0.00 0.00 0.00 34 1012.9
20260504191517 76 142 0.0 1.0 0.00 0.00 0.00 36 1013.3
20260504190016 75 120 0.0 0.0 0.00 0.00 0.00 36 1013.5
20260504184511 74 115 0.0 0.0 0.00 0.00 0.00 38 1013.7
20260504183009 74 83 0.0 0.0 0.00 0.00 0.00 36 1013.8
20260504181512 73 312 0.0 1.0 0.00 0.00 0.00 40 1013.9
20260504180003 73 72 4.0 9.0 0.00 0.00 0.00 37 1014.3
20260504174618 71 158 0.0 6.0 0.00 0.00 0.00 42 1014.6
20260504173100 71 307 0.0 1.0 0.00 0.00 0.00 40 1014.7
20260504171554 71 52 0.0 1.0 0.00 0.00 0.00 40 1015.0
20260504081515 36 335 0.0 0.0 0.00 0.00 0.00 91 1017.2